STARLINK-11632, 63108

Orbit data source: Space-Track

STARLINK-11632, 63108 is a payload satellite owned by SpaceX/Seattle (US) in LEO that was launched on Thu, 27 Feb 2025 UTC via an FALCON 9 launch vehicle from the Air Force Eastern Test Range (AFETR). Payload-class satellites include a variety of spacecraft equipped with specific instruments for various scientific and technological missions. These include communications satellites like Starlink; space stations such as the ISS; scientific satellites like the Hubble; Earth observation satellites from companies like Planet Labs, Umbra, and HawkEye 360; GPS; miniature CubeSats for education and research; and military/defense satellites.

Loading next visibility...
Identifier
63108, 2025-039E
Orbit
LEO
Last TLE update
16 hours ago
Origin
Manufacturer
SpaceX/Seattle
Mission
Operational Commercial Communications
Bus & Motor
STARLINK V2M, Unknown motor
Mass
730 kg wet, ~700 kg dry
Launch date (UTC)
2025-02-27 (4 months ago)
Launch vehicle
FALCON 9
Launch site
Air Force Eastern Test Range (AFETR)
Object type
Payload
Rocket body
Debris
Shape & HBR
Box + 2 Pan, 29 m
Radar Cross Section
36.964 m², Large (>1 m²)

Expand to show TLE details & history

TLE from 16 hours ago
0 STARLINK-11632
1 63108U 25039E   25181.77160579  .00125321  00000-0  96337-3 0  9991
2 63108  42.9997 315.4756 0002964 280.7973  79.2561 15.70889520 19991
Epoch: 2025-06-30T18:31Z
TLE epoch observation values (Epoch: 2025-06-30T18:31:06.74Z)
Latitude
-0.00001°
Longitude
118.62088°
Altitude
355.753 km
Speed
7.698 km/s
True Right ascension
21h 01m 54s
True Declination
0° 00' 00"
Sunlit
Object was in full shadow at epoch
Visualization orbit readout
Latitude
39.41672°
Longitude
175.92925°
Altitude
359.786 km
Speed
7.698 km/s
Apparent Right ascension
05h 00m 30s
Apparent Declination
2° 37' 15"
Sunlit
Object is in daylight
Visualization observer readout
Local Sidereal Time
21:42:19
Azimuth
75.156° E
Elevation
-13.119°
Doppler factor
1
Orbital elements
Apogee altitude
360.332 km
Perigee altitude
356.339 km
Semi-major axis
6,736.472 km
Eccentricity
0.0003
Inclination
42.9997°
RAAN
315.4756°
Arg. of periapsis
280.7973°
True anomaly
Unknown
Mean anomaly
79.2561°
Eccentric anomaly
Unknown
Mean motion
3.92549 °/min
Orbital period
91.71 mins
BSTAR
0.00096337
Loading maneuver chart data...
Loading SW <> Apogee altitude chart data...
Loading historical data...
Loading historical data...
Loading historical data...
Loading historical data...
Loading historical data...
Loading historical data...
Loading historical data...

STARLINK-11632 Visibility forecast

Observer location: undefined°, undefined°

Span
Click to sort rows by Start time (UTC) header in descending order
Start Az.
Max El. time (UTC)
Max El. Az.
Max El.
End time (UTC)
End Az.
4 mins2025-07-01 14:41:56.105Z299.194° NW2025-07-01 14:42:56.105Z338.965° N34.11°2025-07-01 14:45:56.105Z70.66° E
4 mins2025-07-01 16:17:56.105Z297.006° NW2025-07-01 16:19:56.105Z63.501° ENE39.138°2025-07-01 16:21:56.105Z95.813° ESE
4 mins2025-07-01 17:53:56.105Z256.697° W2025-07-01 17:55:56.105Z191.141° SSW23.656°2025-07-01 17:57:56.105Z149.796° SSE
|